Regional Weather Roundup
Issued by NWS

Home | Current Version | Previous Version | Text Only | Print | Product List | Glossary Off
Versions: 1 2 3 4 5 6 7 8 9 10 11 12 13 14 15 16 17 18 19 20 21 22 23 24 25 26 27 28 29 30 31 32 33 34 35 36 37 38 39 40 41 42 43 44 45 46 47 48 49 50

000
ASUS45 KABQ 271901
RWRNM
WEATHER ROUNDUP FOR NEW MEXICO
NATIONAL WEATHER SERVICE ALBUQUERQUE NM
100 PM MDT FRI MAR 27 2015

NOTE: "FAIR" MEANS FEW OR NO CLOUDS BELOW 12,000 FEET AGL WITH NO
       SIGNIFICANT WEATHER OR OBSTRUCTIONS TO VISION.

      THIS PRODUCT IS RELEASED AS TWO VERSIONS.  ONE VERSION NEAR
      THE TOP OF THE HOUR CONTAINING PRELIMINARY DATA FROM ALBUQUERQUE
      AND OTHER STATIONS.  A FINAL VERSION WITH ADDITIONAL DATA IS
      ISSUED ABOUT 10 MINUTES AFTER THE HOUR.

NMZ501-503-504-510>518-272000-
NORTHWEST PLATEAU/NORTHCENTRAL MOUNTAINS

CITY           SKY/WX    TMP DP  RH WIND       PRES   REMARKS
FARMINGTON     SUNNY     66  20  17 W17       30.27F
SANTA FE       SUNNY     64  16  15 VRB6      30.27F
TAOS           SUNNY     61  21  21 W3        30.31F
ANGEL FIRE     FAIR      57  26  31 W14G20    30.33F

$$
NMZ402-403-502-505>509-272000-
WESTCENTRAL MOUNTAINS/SOUTHWEST MOUNTAINS

CITY           SKY/WX    TMP DP  RH WIND       PRES   REMARKS
GALLUP         SUNNY     66  17  15 W6        30.33F
GRANTS         SUNNY     66  15  14 N5        30.34F

$$
NMZ407-409-411-412-272000-
SOUTHERN DESERTS

CITY           SKY/WX    TMP DP  RH WIND       PRES   REMARKS
DEMING         SUNNY     72  21  14 MISG      30.27F
ALAMOGORDO     SUNNY     68  23  18 W3        30.26F
T OR C         SUNNY     70  19  14 VRB5      30.27F

$$
NMZ519>523-272000-
CENTRAL VALLEYS/CENTRAL HIGHLANDS

CITY           SKY/WX    TMP DP  RH WIND       PRES   REMARKS
ALBUQUERQUE    SUNNY     67  21  17 W3        30.27F
DOUBLE EAGLE   SUNNY     66  19  16 W8G17     30.30F
MORIARTY ARPT  FAIR      68  15  12 NW12G22   30.29S
CLINES CORNERS SUNNY     65  17  15 NW16G29   30.28F
BELEN          FAIR      71  18  13 NW12G21   30.27F
SOCORRO        FAIR      71  20  14 N5        30.27F

$$
NMZ524>526-539-540-272000-
SOUTHCENTRAL MOUNTAINS

CITY           SKY/WX    TMP DP  RH WIND       PRES   REMARKS
RUIDOSO        NOT AVBL

$$
NMZ527>531-272000-
NORTHEAST HIGHLANDS/NORTHEAST PLAINS

CITY           SKY/WX    TMP DP  RH WIND       PRES   REMARKS
LAS VEGAS      SUNNY     65  17  15 VRB5      30.25F
RATON          SUNNY     65  21  18 SW8       30.20F
CLAYTON        SUNNY     66  28  24 VRB6      30.19F

$$
NMZ532>537-272000-
EASTCENTRAL PLAINS

CITY           SKY/WX    TMP DP  RH WIND       PRES   REMARKS
TUCUMCARI      SUNNY     70  21  15 CALM      30.18F
CANNON AFB     NOT AVBL
CLOVIS AIRPORT SUNNY     70  28  21 NE9       30.20F

$$
NMZ028-029-538-272000-
SOUTHEAST PLAINS

CITY           SKY/WX    TMP DP  RH WIND       PRES   REMARKS
ROSWELL        SUNNY     76  27  16 N5        30.18F
ARTESIA        SUNNY     73  28  19 E8        30.19F
CARLSBAD       SUNNY     75  33  21 SE7       30.17F
HOBBS          SUNNY     75  23  14 W8G17     30.19F


$$


USA.gov is the U.S. government's official web portal to all federal, state and local government web resources and services.